Regional Weather Roundup
Issued by NWS Upton, NY

Current Version | Previous Version | Text Only | Print | Product List | Glossary On
Versions: 1 2 3 4 5 6 7 8 9 10 11 12 13 14 15 16 17 18 19 20 21 22 23 24 25 26 27 28 29 30 31 32 33 34 35 36 37 38 39 40 41 42 43 44 45 46 47 48 49 50
000
ASUS41 KOKX 230605
RWROKX

REGIONAL WEATHER ROUNDUP
NATIONAL WEATHER SERVICE NEW YORK NY
200 AM EDT SAT AUG 23 2014

NOTE: "FAIR" INDICATES FEW OR NO CLOUDS BELOW 12,000 FEET WITH NO
SIGNIFICANT WEATHER AND/OR OBSTRUCTIONS TO VISIBILITY.

NYZ071-072-176-178-NJZ106-104-230700-
NEW YORK CITY METRO AREA


CITY           SKY/WX    TMP DP  RH WIND       PRES   REMARKS
CENTRAL PARK   CLOUDY    69  56  62 VRB6      30.08S
LAGUARDIA APRT MOCLDY    69  58  67 E7        30.05S
KENNEDY INTL   MOCLDY    68  58  70 NE9       30.05F
NEWARK/LIBERTY MOCLDY    70  58  65 E10       30.05S
BRNX BOT. GARD   N/A     66  57  72 NE5       30.08R
TETERBORO      CLOUDY    70  56  61 E7        30.05R
$$

NYZ177-179-078>081-230700-
LONG ISLAND NEW YORK

CITY           SKY/WX    TMP DP  RH WIND       PRES   REMARKS
FARMINGDALE    FAIR      63  58  83 NE3       30.05F
ISLIP          MOCLDY    64  59  83 NE6       30.04F
SHIRLEY        CLOUDY    65  60  84 CALM      30.06F
WESTHAMPTON    MOCLDY    66  61  84 NE6       30.07F
MONTAUK POINT    N/A     67  62  84 NE7       30.07F
$$

NYZ052-065-067-230700-
HUDSON VALLEY

CITY           SKY/WX    TMP DP  RH WIND       PRES   REMARKS
WHITE PLAINS   CLOUDY    66  62  87 NE3       30.06S
NEWBURGH       NOT AVBL
MONTGOMERY     CLOUDY    64  62  93 N5        30.07S
POUGHKEEPSIE   CLOUDY    66  62  87 NE3       30.07S
ALBANY         CLOUDY    64  62  93 N3        30.09F
$$

NJZ001-105-106-008-010-013-015-019>022-104-230700-
NEW JERSEY

CITY           SKY/WX    TMP DP  RH WIND       PRES   REMARKS
NEWARK/LIBERTY MOCLDY    70  58  65 E10       30.05S
TETERBORO      CLOUDY    70  56  61 E7        30.05R
CALDWELL       FAIR      64  57  78 NE3       30.06S
MORRISTOWN     FAIR      63  59  88 CALM      30.05S
SOMERVILLE     MOCLDY    67  60  78 N3        30.02F
LINDEN         FAIR      73  63  70 SE6       30.06S
SUSSEX         CLOUDY    67  62  84 CALM      30.06S
ANDOVER          N/A     64  61  90 CALM      30.06F
TRENTON        CLOUDY    67  62  84 NE6       30.02F
MILLVILLE      FAIR      65  62  90 NE5       30.00F
ATLANTIC CITY  FAIR      64  62  93 CALM      30.00F
WRIGHTSTOWN    FAIR      65  63  92 NE6       30.00F
TOMS RIVER     CLOUDY    68  63  83 NE5       30.02F
BELMAR         CLOUDY    68  59  73 NE8       30.03F
$$

PAZ047>061-062-071-230700-
EASTERN PENNSYLVANIA

CITY           SKY/WX    TMP DP  RH WIND       PRES   REMARKS
PHILADELPHIA   FAIR      68  62  81 NE5       30.03F
ALLENTOWN      CLOUDY    67  60  78 NE5       30.04F
SCRANTON       CLOUDY    66  59  78 VRB3      30.05F
$$

CTZ002-004>006-009-010-012-RIZ004-006-007-MAZ004-011-015-230700-
SOUTHERN NEW ENGLAND
 IN CT

CITY           SKY/WX    TMP DP  RH WIND       PRES   REMARKS
BRADLEY INTL   CLOUDY    65  61  87 N7        30.08F
HARTFORD       CLOUDY    65  60  84 NE5       30.08F
DANBURY        CLOUDY    66  61  84 NE3       30.09S
WTRBRY/OXFORD  CLOUDY    63  57  82 NE6       30.10S
BRIDGEPORT     MOCLDY    68  62  81 NE9       30.07S
MERIDEN        CLOUDY    66  61  84 N6        30.08S
NEW HAVEN      CLOUDY    68  60  75 NE6       30.07S
CHESTER        CLOUDY    64  61  88 NE3       30.08F
GROTON         CLOUDY    63  61  93 NE7       30.06F
WILLIMANTIC    FAIR      64  60  87 NE3       30.09F

 IN RI

CITY           SKY/WX    TMP DP  RH WIND       PRES   REMARKS
PROVIDENCE     FAIR      64  60  87 NE8       30.09S
BLOCK ISLAND   FAIR      64  61  88 NE10G16   30.06F
WESTERLY       CLOUDY    64  61  90 NE6       30.07F

 IN MA

CITY           SKY/WX    TMP DP  RH WIND       PRES   REMARKS
BOSTON         CLOUDY    64  60  87 N8        30.10S
WORCESTER      CLOUDY    60  58  92 VRB5      30.12S
WESTFIELD      CLOUDY    64  61  90 N6        30.10S
PROVINCETOWN   FAIR      64  61  88 MISG      30.08S
NANTUCKET      FAIR      62  60  93 NE6       30.05S
$$

ANZ330-335-338-340-345-350-353-355-230700-
COASTAL MARINE OBSERVATIONS


STATION/POSITION TIME  SKY/WX   TEMP    WIND        PRES    VSBY  WAVE
                                AIR SEA DIR/SP/G                  HT/PER
                 (UTC)          (F)     (DEG/KT/KT) (MB)    (MI)  (FT/S)
NY HARB ENTRANCE NOT AVBL
4S FIRE IS       NOT AVBL
23SW MTP         0600            67 70              1017.0          5/ 7
HUDSON CANYON    0600            71 72   50/ 16/ 19 1015.6          4/ 5
EXECUTION ROCKS  0600            69 73  110/ 10/ 12   N/A
WESTERN LI SOUND 0600            69     110/ 10/ 12   N/A           1/ 4
CENTRAL LI SOUND 0500            68 72   70/ 14/ 17   N/A           1/ 3
EASTERN LI SOUND 0500            66 68   40/ 10/ 14   N/A
ROBBINS REEF     0600            69      90/ 12/ 15   N/A
$$


>>>>>>>>>>>>>>>>>>>>>>>>>>>> KEY <<<<<<<<<<<<<<<<<<<<<<<<<<<
>                                                          <
>     SKY/WX - SKY CONDITION/PRESENT WEATHER               <
>     TMP    - TEMPERATURE IN FAHRENHEIT                   <
>     DP     - DEWPOINT IN FAHRENHEIT                      <
>     RH     - RELATIVE HUMIDITY IN PERCENT                <
>     WIND   - DIRECTION AND SPEED IN MPH                  <
>     PRES   - MEAN SEA LEVEL PRESSURE IN INCHES OF HG     <
>     WCI    - WIND CHILL INDEX                            <
>     VSB    - VISIBILITY IN MILES                         <
>     HX     - HEAT INDEX                                  <
>     TC     - TEMPERATURE IN CELSIUS                      <
>     VRB    - VARIABLE WIND DIRECTION                     <
>                                                          <
>>>>>>>>>>>>>>>>>>>>>>>>>>>> KEY <<<<<<<<<<<<<<<<<<<<<<<<<<<




USA.gov is the U.S. government's official web portal to all federal, state and local government web resources and services.